Evans Head Observation History
Time Wind Speed Temp Pressure Rel. Hum Rain
08/03:00am SW 5-7 kts 13.1°c 1014.2 hPa 97% 23.6mm
08/02:30am SW 5-6 kts 13.1°c 1014.3 hPa 97% 23.4mm
08/02:00am SW 3-6 kts 13.1°c 1014.4 hPa 96% 23.4mm
08/01:30am WNW 1-3 kts 13.1°c 1014.7 hPa 96% 23.4mm
08/01:00am W 3-5 kts 13.1°c 1015.0 hPa 96% 23.2mm
08/12:30am WSW 5-6 kts 13.1°c 1015.3 hPa 96% 23.2mm
08/12:00am W 5-6 kts 13.1°c 1015.4 hPa 96% 23.2mm
Time Wind Speed Temp Pressure Rel. Hum Rain
07/11:30pm WNW 6-8 kts 13.1°c 1015.8 hPa 96% 23.2mm
07/11:00pm WNW 6-8 kts 13.1°c 1015.9 hPa 96% 23.2mm
07/10:30pm WNW 7-10 kts 13.0°c 1016.2 hPa 96% 23.2mm
07/10:00pm NW 7-11 kts 13.2°c 1016.3 hPa 96% 23.2mm
07/09:30pm NNW 6-10 kts 13.4°c 1016.2 hPa 96% 23.2mm
07/09:00pm NNW 6-9 kts 13.7°c 1016.1 hPa 96% 23.2mm
07/08:30pm W 7-11 kts 14.4°c 1016.4 hPa 96% 23.2mm
07/08:00pm ENE 7-12 kts 15.4°c 1015.6 hPa 97% 23.2mm
07/07:30pm ESE 7-9 kts 14.0°c 1015.6 hPa 97% 23.2mm
07/07:00pm S 3-5 kts 13.0°c 1016.8 hPa 96% 23.2mm
07/06:30pm SW 6-9 kts 13.1°c 1018.0 hPa 96% 23.2mm
07/06:00pm SSW 6-8 kts 13.3°c 1017.5 hPa 96% 23.2mm
07/05:30pm SW 7-11 kts 13.3°c 1016.8 hPa 96% 23.0mm
07/05:00pm SW 9-13 kts 13.3°c 1017.0 hPa 96% 22.8mm
07/04:30pm SW 10-13 kts 13.2°c 1016.9 hPa 96% 21.6mm
07/04:00pm SSW 7-12 kts 13.6°c 1015.6 hPa 96% 21.4mm
07/03:30pm SSW 9-13 kts 14.1°c 1015.8 hPa 96% 21.2mm
07/03:00pm SW 6-12 kts 14.9°c 1016.4 hPa 96% 20.4mm
07/02:30pm WSW 7-12 kts 14.9°c 1016.0 hPa 95% 19.0mm
07/02:00pm S 9-12 kts 15.2°c 1014.8 hPa 95% 17.8mm
07/01:30pm SW 8-10 kts 14.9°c 1015.9 hPa 94% 14.8mm
07/01:00pm ESE 8-11 kts 15.1°c 1015.7 hPa 92% 4.8mm
07/12:30pm E 5-9 kts 14.8°c 1015.7 hPa 94% 2.0mm
07/12:00pm ESE 4-7 kts 14.5°c 1016.8 hPa 93% 1.8mm
07/11:30am NNW 4-5 kts 13.4°c 1018.6 hPa 91% 1.2mm
07/11:00am N 5-9 kts 14.1°c 1018.9 hPa 86% 0.2mm
07/10:30am E 9-16 kts 15.6°c 1019.6 hPa 77% 0.0mm
07/10:00am ESE 12-17 kts 17.0°c 1019.5 hPa 65% 0.0mm
07/09:30am ESE 13-19 kts 17.2°c 1019.4 hPa 64% 0.0mm
07/09:00am ESE 13-17 kts 17.0°c 1019.6 hPa 62% 0.0mm
07/08:30am ESE 12-17 kts 16.9°c 1019.6 hPa 65% 0.0mm
07/08:00am ESE 13-17 kts 16.9°c 1019.7 hPa 63% 0.0mm
07/07:30am ESE 12-18 kts 17.3°c 1019.5 hPa 60% 0.0mm
07/07:00am ESE 12-16 kts 16.6°c 1019.6 hPa 60% 0.0mm
07/06:30am SE 11-15 kts 16.5°c 1019.6 hPa 62% 0.0mm
07/06:00am SE 12-17 kts 16.6°c 1019.4 hPa 60% 0.0mm
07/05:30am SE 13-18 kts 16.5°c 1019.4 hPa 61% 0.0mm
07/05:00am SE 12-15 kts 16.2°c 1019.2 hPa 62% 0.0mm
07/04:30am SE 10-14 kts 16.1°c 1019.1 hPa 63% 0.0mm
07/04:00am S 6-9 kts 14.0°c 1019.1 hPa 75% 0.0mm
07/03:30am SSW 7-8 kts 13.3°c 1019.2 hPa 80% 0.0mm
07/03:00am S 7-9 kts 12.2°c 1019.6 hPa 76% 0.0mm
07/02:30am SSW 7-8 kts 12.3°c 1019.7 hPa 72% 0.0mm
07/02:00am SW 7-8 kts 12.1°c 1019.9 hPa 70% 0.0mm
07/01:30am SW 7-8 kts 12.0°c 1020.0 hPa 71% 0.0mm
07/01:00am SW 7-8 kts 11.9°c 1020.1 hPa 71% 0.0mm
07/12:30am WSW 7-8 kts 11.9°c 1020.2 hPa 73% 0.0mm
07/12:00am WSW 7-9 kts 11.6°c 1020.1 hPa 74% 0.0mm
Time Wind Speed Temp Pressure Rel. Hum Rain
06/11:30pm SSW 5-8 kts 12.8°c 1020.2 hPa 71% 0.0mm
06/11:00pm SSW 5-8 kts 13.0°c 1020.2 hPa 70% 0.0mm
06/10:30pm SW 5-8 kts 12.5°c 1020.0 hPa 71% 0.0mm
06/10:00pm SSW 5-7 kts 13.2°c 1019.9 hPa 69% 0.0mm
06/09:30pm SW 5-7 kts 12.6°c 1019.9 hPa 72% 0.0mm
06/09:00pm S 6-7 kts 14.2°c 1019.7 hPa 67% 0.0mm
06/08:30pm SE 8-11 kts 15.3°c 1019.5 hPa 64% 0.0mm
06/08:00pm SE 7-9 kts 15.2°c 1019.4 hPa 66% 0.0mm
06/07:30pm SE 8-11 kts 15.8°c 1018.9 hPa 64% 0.0mm
06/07:00pm SE 9-11 kts 15.7°c 1018.5 hPa 64% 0.0mm
06/06:30pm SE 8-10 kts 15.4°c 1018.3 hPa 64% 0.0mm
06/06:00pm SE 8-10 kts 15.5°c 1017.8 hPa 65% 0.0mm
06/05:30pm SE 9-11 kts 15.5°c 1017.4 hPa 65% 0.0mm
06/05:00pm SE 8-10 kts 15.7°c 1017.0 hPa 66% 0.0mm
06/04:30pm SE 7-9 kts 16.2°c 1016.8 hPa 63% 0.0mm
06/04:00pm SE 8-11 kts 16.8°c 1016.6 hPa 59% 0.0mm
06/03:30pm SSE 8-12 kts 17.6°c 1016.5 hPa 57% 0.0mm
06/03:00pm SSE 10-14 kts 18.1°c 1016.3 hPa 55% 0.0mm
06/02:30pm SSE 12-16 kts 18.0°c 1016.2 hPa 58% 0.0mm
06/02:00pm SSE 11-16 kts 18.2°c 1016.3 hPa 54% 0.0mm
06/01:30pm SSE 11-15 kts 18.4°c 1016.4 hPa 55% 0.0mm
06/01:00pm S 11-16 kts 18.2°c 1016.8 hPa 51% 0.0mm
06/12:30pm S 9-13 kts 19.0°c 1017.2 hPa 49% 0.0mm
06/12:00pm S 10-13 kts 18.2°c 1017.6 hPa 50% 0.0mm
06/11:30am S 9-13 kts 17.6°c 1017.9 hPa 50% 0.0mm
06/11:00am S 9-13 kts 17.5°c 1018.3 hPa 46% 0.0mm
06/10:30am SSW 9-13 kts 17.0°c 1018.6 hPa 32% 0.0mm
06/10:00am SSW 9-11 kts 16.1°c 1019.0 hPa 41% 0.0mm
06/09:30am SSW 8-11 kts 14.8°c 1019.0 hPa 46% 0.0mm
06/09:00am SW 5-7 kts 13.7°c 1018.5 hPa 46% 0.2mm
06/08:30am WSW 6-9 kts 12.9°c 1018.2 hPa 48% 0.2mm
06/08:00am W 7-9 kts 11.3°c 1017.8 hPa 55% 0.2mm
06/07:30am WSW 9-11 kts 10.5°c 1017.4 hPa 54% 0.2mm
06/07:00am W 9-11 kts 9.5°c 1016.9 hPa 70% 0.2mm
06/06:30am SW 10-12 kts 9.8°c 1016.4 hPa 78% 0.2mm
06/06:00am WSW 9-11 kts 10.3°c 1016.0 hPa 87% 0.2mm
06/05:30am W 5-7 kts 11.1°c 1015.9 hPa 95% 0.2mm
06/05:00am WSW 5-8 kts 11.5°c 1015.5 hPa 95% 0.2mm
06/04:30am WSW 5-8 kts 12.2°c 1015.2 hPa 95% 0.2mm
06/04:00am SW 4-5 kts 12.4°c 1014.9 hPa 95% 0.2mm
06/03:30am W 7-8 kts 12.9°c 1014.8 hPa 95% 0.2mm
06/03:00am W 7-8 kts 13.5°c 1014.7 hPa 95% 0.0mm
06/02:30am WNW 6-7 kts 13.7°c 1014.8 hPa 94% 0.0mm
06/02:00am WNW 6-7 kts 14.4°c 1014.8 hPa 94% 0.0mm
06/01:30am W 7 kts 14.5°c 1015.0 hPa 94% 0.0mm
06/01:00am WNW 5-6 kts 13.6°c 1015.2 hPa 93% 0.0mm
06/12:30am W 6-8 kts 14.7°c 1015.4 hPa 93% 0.0mm
06/12:00am WSW 7-8 kts 14.5°c 1015.3 hPa 93% 0.0mm